DELTA 1 DEB, 10469

Orbit data source: Space-Track

DELTA 1 DEB, 10469 is space debris in LEO originally from a launch on Thu, 14 Jul 1977 UTC launched from the Air Force Eastern Test Range (AFETR). Debris objects in space refer to the collection of defunct objects orbiting the Earth. Examples of debris include non-operational satellites, rocket bodies, and fragments generated from explosions, collisions, or faulty payload assembly.

Loading next visibility...
Identifier
10469, 1977-065EB
Orbit
LEO
Country
Flag of USUS
Related business
Manufacturer
Unknown
Mission
Spacecraft
Bus & Motor
Unknown
Mass
Unknown
Launch date (UTC)
1977-07-14 (48 years ago)
Launch vehicle
Unknown
Launch site
Air Force Eastern Test Range (AFETR)
Object type
Payload
Rocket body
Debris
Shape & HBR
Unknown shape, 0.1 m
Radar Cross Section
Small (<0.1 m²)

Expand to show TLE details & history
Last TLE update: 15 hours ago

TLE from 15 hours ago
0 DELTA 1 DEB
1 10469U 77065EB  25349.54263597 -.00000001  00000-0 -49583-4 0  9995
2 10469  29.1171  99.7619 0866730  44.0207 322.6157 12.72230319246997
Epoch: 2025-12-15T13:01Z
TLE epoch observation values (Epoch: 2025-12-15T13:01:23.747Z)
Latitude
-0.00005°
Longitude
179.97317°
Altitude
861.51 km
Speed
7.663 km/s
True Right ascension
06h 39m 02s
True Declination
0° 00' 00"
Sunlit
Object was in full shadow at epoch
Visualization orbit readout
Latitude
Unknown
Longitude
Unknown
Altitude
Unknown
Speed
Unknown
Apparent Right ascension
Unknown
Apparent Declination
Unknown
Sunlit
N/A
Visualization observer readout
Local Sidereal Time
02:45:22
Azimuth
Unknown
Elevation
Unknown
Doppler factor
Unknown
Orbital elements
Apogee altitude
2,048.704 km
Perigee altitude
704.455 km
Semi-major axis
7,754.717 km
Eccentricity
0.08667
Inclination
29.1171°
RAAN
99.7619°
Arg. of periapsis
44.0207°
True anomaly
316.03443°
Mean anomaly
322.6157°
Eccentric anomaly
319.38283°
Mean motion
3.1783 °/min
Orbital period
113.27 mins
BSTAR
-0.000049583
Loading maneuver chart data...
Computing Atmospheric mass density...

Documentation

Showing up to 5 results
|